Flag for Germany Weather past 2 weeks in Ilmenau, Thuringia, Germany

Now
90 °F

Sunny.


Feels Like: 88 °F
Forecast: 68 / 89 °F
Wind: 6 mph from South

Location: Erfurt-Bindersleben

Current Time: Jul 3, 2015 at 3:03:38 PM

Latest Report: Jul 3, 2015 at 2:20 PM


Visibility: 10 mi

Pressure: 30.24 "Hg

Humidity: 33%

Dew point: 57 °F

Location of IlmenauLocation

Historic Weather in Ilmenau — Graph

°F

Ilmenau temperature yesterday

Maximum temperature yesterday: 88 °F (at 1:50 PM)
Minimum temperature yesterday: 61 °F (at 5:50 AM)
Average temperature yesterday: 76 °F

Past Weeks' High & Low Weather Summary

 TemperatureHumidityPressure
High90 °F (Jul 3, 1:50 PM)100% (Jun 23, 1:20 AM)30.30 "Hg (Jun 23, 1:20 AM)
Low43 °F (Jun 21, 3:20 AM)31% (Jul 2, 2:50 PM)29.65 "Hg (Jun 23, 12:50 AM)
Average62 °F68%30.08 "Hg
* Reported Jun 18 1:20 PM — Jul 3 1:50 PM, Ilmenau, Weather by CustomWeather, © 2015

Note: Actual official high and low records may vary slightly from our data, if they occured in-between our weather recording intervals... More about our weather records

Advertising

Ilmenau weather history for previous 24 hours

 ConditionsComfort  
Time TempWeatherWind HumidityBarometerVisibility
1:50 PM
Fri, Jul 3
90 °FPassing clouds.6 mph33%30.24 "HgN/A
1:20 PM88 °FSunny.8 mph38%30.27 "Hg10 mi
12:50 PM86 °FSunny.9 mph38%30.27 "Hg10 mi
12:20 PM84 °FSunny.9 mph40%30.27 "Hg10 mi
11:50 AM84 °FScattered clouds.12 mph43%30.30 "HgN/A
11:20 AM82 °FScattered clouds.12 mph48%30.30 "HgN/A
10:50 AM81 °FScattered clouds.10 mph54%30.30 "HgN/A
10:20 AM81 °FSunny.12 mph51%30.30 "Hg10 mi
9:50 AM79 °FSunny.7 mph58%30.27 "Hg10 mi
9:20 AM77 °FSunny.6 mph57%30.27 "Hg10 mi
8:50 AM75 °FSunny.6 mph61%30.24 "Hg10 mi
8:20 AM75 °FSunny.5 mph61%30.24 "Hg10 mi
7:50 AM75 °FSunny.2 mph57%30.24 "Hg10 mi
7:20 AM73 °FSunny.2 mph61%30.24 "Hg10 mi
6:50 AM72 °FSunny.2 mph65%30.24 "Hg10 mi
6:20 AM70 °FSunny.2 mph64%30.24 "Hg10 mi
5:50 AM70 °FClear.3 mph64%30.24 "Hg10 mi
5:20 AM70 °FClear.2 mph64%30.21 "Hg10 mi
4:50 AM70 °FClear.5 mph64%30.21 "Hg10 mi
4:20 AM72 °FClear.5 mph61%30.21 "Hg10 mi
3:50 AM72 °FClear.6 mph61%30.21 "Hg10 mi
3:20 AM72 °FClear.5 mph61%30.21 "Hg10 mi
2:50 AM70 °FClear.6 mph64%30.21 "Hg10 mi
2:20 AM72 °FClear.6 mph61%30.21 "Hg10 mi
1:50 AM72 °FClear.6 mph61%30.21 "Hg10 mi
1:20 AM72 °FClear.5 mph61%30.21 "Hg10 mi
12:50 AM73 °FClear.2 mph57%30.21 "Hg10 mi
12:20 AM75 °FClear.2 mph54%30.21 "Hg10 mi
11:50 PM
Thu, Jul 2
75 °FClear.6 mph54%30.21 "Hg10 mi
11:20 PM77 °FClear.6 mph51%30.21 "Hg10 mi
10:50 PM77 °FClear.6 mph51%30.21 "Hg10 mi
10:20 PM77 °FSunny.7 mph47%30.21 "Hg10 mi
9:50 PM79 °FSunny.8 mph45%30.21 "Hg10 mi
9:20 PM81 °FSunny.8 mph42%30.18 "Hg10 mi
8:50 PM82 °FSunny.8 mph37%30.18 "Hg10 mi
8:20 PM82 °FSunny.9 mph37%30.18 "Hg10 mi
7:50 PM84 °FSunny.12 mph35%30.18 "Hg10 mi
7:20 PM84 °FSunny.13 mph35%30.18 "Hg10 mi
6:50 PM86 °FSunny.12 mph35%30.18 "Hg10 mi
6:20 PM86 °FSunny.13 mph35%30.18 "Hg10 mi
5:50 PM86 °FSunny.13 mph35%30.18 "Hg10 mi
5:20 PM86 °FSunny.13 mph33%30.18 "Hg10 mi
4:50 PM88 °FSunny.14 mph31%30.18 "Hg10 mi
4:20 PM88 °FSunny.16 mph33%30.18 "Hg10 mi
3:50 PM88 °FSunny.14 mph33%30.18 "Hg10 mi
3:20 PM88 °FSunny.12 mph33%30.18 "Hg10 mi
Weather by CustomWeather, © 2015

See weather overviewHow to use our weather pages